Location: Laura�t
(43.9341°N, 0.2497°E)
Time: 23:19:51
(UTC+00:00)

Cosmos 1862 Rocket - Pass Details

Date: 03 March 2021
Orbit: 603 x 634 km, 82.5° (Epoch: 17 April)

Event Time Altitude Azimuth Distance (km) Brightness Sun altitude
Rises 19:00:04 0° 347° (NNW) 2,943 7.3 -13.4°
Reaches altitude 10° 19:02:20 10° 344° (NNW) 2,029 6.5 -13.8°
Maximum altitude 19:06:46 59° 265° (W) 735 4.2 -14.6°
Drops below altitude 10° 19:11:08 10° 187° (S) 2,006 6.2 -15.4°
Sets 19:13:22 0° 183° (S) 2,905 7.0 -15.8°
